Regional Weather Roundup
Issued by NWS

Home | Current Version | Previous Version | Graphics & Text | Print | Product List | Glossary On
Versions: 1 2 3 4 5 6 7 8 9 10 11 12 13 14 15 16 17 18 19 20 21 22 23 24 25 26 27 28 29 30 31 32 33 34 35 36 37 38 39 40 41 42 43 44 45 46 47 48 49 50
149
ASUS43 KFSD 251210
RWRSD

WEATHER ROUNDUP FOR SOUTH DAKOTA
NATIONAL WEATHER SERVICE SIOUX FALLS SD
700 AM CDT SUN JUN 25 2017

NOTE: "FAIR" INDICATES FEW OR NO CLOUDS BELOW 12,000 FEET WITH NO
SIGNIFICANT WEATHER AND/OR OBSTRUCTIONS TO VISIBILITY.


SDZ001>005-009-010-012>017-251300-
NORTHWEST AND NORTH CENTRAL SOUTH DAKOTA

CITY           SKY/WX    TMP DP  RH WIND       PRES   REMARKS
BUFFALO          N/A     48  32  53 W5        30.26F
FAITH            N/A     47  36  65 SW10      30.32F
MOBRIDGE       CLEAR     45  39  79 CALM      30.28S
$$

SDZ012>016-024>037-041>051-057-063-072>074-251300-
SOUTHWEST AND SOUTH CENTRAL SOUTH DAKOTA

CITY           SKY/WX    TMP DP  RH WIND       PRES   REMARKS
RAPID CTY ARPT PTCLDY    45  33  63 S5        30.35F
PIERRE         NOT AVBL
CUSTER         CLEAR     37  27  67 NW3       30.40F
ELLSWORTH AFB  MOCLDY    49  33  54 S6        30.34F
PHILIP         CLEAR     40  35  83 W5        30.35R
PINE RIDGE     PTCLDY    47  40  76 CALM      30.37S
SPEARFISH      FAIR      45  37  76 CALM      30.35R
WINNER         FAIR      47  39  74 W3        30.35S
$$

SDZ004>011-016>023-039-040-251300-
NORTHEAST SOUTH DAKOTA

CITY           SKY/WX    TMP DP  RH WIND       PRES   REMARKS
ABERDEEN       SUNNY     47  42  83 W3        30.29R
WATERTOWN      SUNNY     50  47  89 NW12      30.26R
BROOKINGS      SUNNY     49  46  90 NW7       30.27R
SISSETON         N/A     53  47  79 NW9       30.24R
$$

SDZ017-020-022-023-036>040-048>070-251300-
SOUTHEAST SOUTH DAKOTA

CITY           SKY/WX    TMP DP  RH WIND       PRES   REMARKS
SIOUX FALLS    MOSUNNY   50  46  86 W9        30.29R
HURON          SUNNY     47  43  86 W8        30.30S
CHAMBERLAIN    CLEAR     46  43  88 W3        30.34S
YANKTON        SUNNY     49  43  80 NW8       30.32R
$$

ABBREVIATIONS USED IN REMARKS
   TC - TEMPERATURE IN CELSIUS
  WCI - WIND CHILL INDEX
   HX - HEAT INDEX
  VSB - VISIBILITY





USA.gov is the U.S. government's official web portal to all federal, state and local government web resources and services.